Weather History for KLHQ - November, 2012

Change the Weather History Date:

Thursday, November 1, 2012

  Actual Average Record
Temperature  
Mean Temperature 44 °F -  
Max Temperature 50 °F 63 °F 79 °F (1974)
Min Temperature 39 °F 39 °F 21 °F (1988)
Degree Days  
Heating Degree Days 20    
Moisture  
Dew Point 34 °F    
Average Humidity 75    
Maximum Humidity 93    
Minimum Humidity 47    
Precipitation  
Precipitation 0.03 in - - ()
Sea Level Pressure  
Sea Level Pressure 29.79 in    
Wind  
Wind Speed 10 mph (West)    
Max Wind Speed 17 mph    
Max Gust Speed 24 mph    
Visibility 8 miles    
Events Rain    
Averages and records for this station are not official NWS values.
T = Trace of Precipitation, MM = Missing Value Source: NWS Daily Summary

Daily Weather History Graph

Daily Weather History Graph

Search for Another Location

Airport or City:

Trip Planner

Search our weather history database for the weather conditions in past years. The results will help you decide how hot, cold, wet, or windy it might be!

Date:

Astronomy

Nov. 01, 2012 Rise Set
Actual Time 7:59 AM EDT 6:28 PM EDT
Civil Twilight 7:31 AM EDT 6:56 PM EDT
Nautical Twilight 6:59 AM EDT 7:27 PM EDT
Astronomical Twilight 6:28 AM EDT 7:59 PM EDT
Moon 8:24 PM EDT (11/1) 10:31 AM EDT (11/1)
Length of Visible Light 11h 24m
Length of Day
10h 28m
Waning Gibbous, 93% of the Moon is Illuminated
Nov 1
Waning Gibbous
Nov 6
Last Quarter
Nov 13
New
Nov 20
First Quarter
Nov 28
Full

Hourly Weather History & Observations

Time (EDT) Temp. Windchill Dew Point Humidity Pressure Visibility Wind Dir Wind Speed Gust Speed Precip Events Conditions
12:06 AM 39.2 °F 32.5 °F 35.6 °F 87% 29.75 in 6.0 mi West 10.4 mph - 0.00 in Rain Light Rain
12:53 AM 39.0 °F 33.4 °F 36.0 °F 89% 29.76 in 7.0 mi West 8.1 mph - 0.01 in Rain Light Rain
1:53 AM 39.0 °F 32.8 °F 36.0 °F 89% 29.76 in 9.0 mi West 9.2 mph - 0.01 in Rain Light Rain
2:53 AM 39.0 °F 32.8 °F 36.0 °F 89% 29.76 in 7.0 mi West 9.2 mph - 0.00 in   Overcast
3:49 AM 39.2 °F 33.6 °F 37.4 °F 93% 29.75 in 5.0 mi West 8.1 mph - N/A   Overcast
3:53 AM 39.0 °F 32.8 °F 37.0 °F 93% 29.76 in 4.0 mi West 9.2 mph - N/A   Overcast
4:36 AM 39.2 °F 33.6 °F 37.4 °F 93% 29.75 in 6.0 mi West 8.1 mph - 0.00 in   Overcast
4:43 AM 39.2 °F 33.0 °F 35.6 °F 87% 29.75 in 7.0 mi West 9.2 mph - 0.00 in   Overcast
4:50 AM 39.2 °F 32.5 °F 37.4 °F 93% 29.75 in 7.0 mi West 10.4 mph - 0.00 in   Overcast
4:53 AM 39.0 °F 32.3 °F 37.0 °F 93% 29.76 in 6.0 mi West 10.4 mph 18.4 mph 0.00 in   Overcast
5:53 AM 39.0 °F 31.8 °F 36.0 °F 89% 29.77 in 7.0 mi West 11.5 mph - 0.01 in   Overcast
6:00 AM 39.2 °F 33.0 °F 35.6 °F 87% 29.76 in 6.0 mi West 9.2 mph - N/A   Overcast
7:34 AM 39.2 °F 32.5 °F 35.6 °F 87% 29.77 in 6.0 mi West 10.4 mph - 0.00 in Rain Light Rain
7:44 AM 39.2 °F 33.0 °F 35.6 °F 87% 29.77 in 6.0 mi West 9.2 mph - 0.00 in   Overcast
7:53 AM 39.0 °F 32.3 °F 36.0 °F 89% 29.79 in 6.0 mi West 10.4 mph - 0.00 in   Overcast
8:53 AM 39.9 °F 33.4 °F 36.0 °F 86% 29.81 in 6.0 mi West 10.4 mph - N/A   Overcast
9:04 AM 39.2 °F 32.5 °F 35.6 °F 87% 29.79 in 7.0 mi West 10.4 mph - N/A   Overcast
9:30 AM 41.0 °F 33.9 °F 35.6 °F 81% 29.79 in 8.0 mi West 12.7 mph - N/A   Overcast
9:53 AM 41.0 °F 33.9 °F 36.0 °F 82% 29.81 in 9.0 mi West 12.7 mph - N/A   Overcast
10:51 AM 44.6 °F 37.8 °F 35.6 °F 71% 29.80 in 10.0 mi WNW 15.0 mph 19.6 mph N/A   Mostly Cloudy
10:53 AM 43.0 °F 36.4 °F 35.1 °F 74% 29.82 in 10.0 mi West 12.7 mph 19.6 mph N/A   Mostly Cloudy
11:53 AM 46.0 °F 39.6 °F 34.0 °F 63% 29.82 in 10.0 mi West 15.0 mph - N/A   Mostly Cloudy
12:53 PM 46.9 °F - 32.0 °F 56% 29.81 in 10.0 mi WNW 12.7 mph 21.9 mph N/A   Partly Cloudy
1:53 PM 46.0 °F 39.0 °F 30.0 °F 54% 29.80 in 10.0 mi West 17.3 mph 24.2 mph N/A   Partly Cloudy
2:53 PM 46.9 °F - 30.9 °F 54% 29.78 in 10.0 mi West 13.8 mph 23.0 mph N/A   Partly Cloudy
3:53 PM 50.0 °F - 30.9 °F 48% 29.78 in 10.0 mi WNW 13.8 mph 18.4 mph N/A   Partly Cloudy
4:53 PM 48.0 °F - 30.0 °F 50% 29.79 in 10.0 mi WNW 12.7 mph 19.6 mph N/A   Overcast
5:53 PM 46.9 °F - 30.0 °F 52% 29.79 in 10.0 mi WNW 6.9 mph - N/A   Overcast
6:53 PM 46.0 °F 43.1 °F 27.0 °F 47% 29.81 in 10.0 mi WNW 5.8 mph - N/A   Mostly Cloudy
7:53 PM 44.1 °F 42.5 °F 30.0 °F 58% 29.82 in 10.0 mi WNW 3.5 mph - N/A   Overcast
8:53 PM 44.1 °F 41.5 °F 30.9 °F 60% 29.83 in 10.0 mi WSW 4.6 mph - 0.00 in   Overcast
9:53 PM 42.1 °F 38.4 °F 30.9 °F 65% 29.83 in 10.0 mi West 5.8 mph - N/A   Overcast
10:53 PM 44.1 °F 39.5 °F 30.0 °F 58% 29.83 in 10.0 mi West 8.1 mph - N/A   Overcast
11:53 PM 43.0 °F 38.8 °F 30.0 °F 60% 29.83 in 10.0 mi West 6.9 mph - N/A   Overcast